Starlink 32635

operational
NORAD ID: 62155 Int'l Des: 2024-224 Owner: SPXS Country: US Constellation: starlink
LEOCIRCULAR

About Starlink 32635

Description loading...

Live Position

Loading 3D Globe...

Upcoming Passes

Altitude History

Altitude vs Time

uPlot chart will show altitude changes over time

Two-Line Element Set

1 62155U 24224S 25257.93929045 .00027084 00000-0 98988-3 0 9991
2 62155 43.0002 78.2245 0000502 290.7418 69.3380 15.27588049 45351
Epoch: Sep 14, 2025 • Age: 25 hours

Current Status

Altitude 495.9 km
Velocity 7.62 km/s
Sub-Earth Point -43.09°S, 2.07°E
Launch Date Nov 30, 2024
Age 0.7 years
Type internet

Technical Details

Classification Payload
Mass 730.00 kg
Dry Mass 700.00 kg
Total Mass 730.00 kg
Length 0.30 m
Diameter 4.10 m
Span 29.00 m
Shape Box + pan
Manufacturer SPXS
Bus Type Starlink V2M
Phase Status In Orbit
Owner/State SPXS/US

Large Constellations

Loading constellations...